When you browse on this site, cookies collect data to enhance your experience and personalize the content and advertising you see.
Visit our Privacy Policy to learn more. By continuing to use the site, you agree to this use of cookies and data.
  • Em Portugal
  • Lista de países
  • Para 7 dias
  • Temperatura da água
  • Mapas de satélite
  • Mapa do tempo
  • Widgets de tempo
  • user-avatar
    Iniciar Sessão

    Previsão horária em Sunny Beach

    Hoje, 26 Maio, Domingo

    Tempo Temperatura Precipitação Vento Pressão Humidade
    00:00 +14°C° 0 mm 1 m/s 735 mmHg 87%
    01:00 +14°C° 0 mm 2 m/s 735 mmHg 88%
    02:00 +14°C° 0 mm 2 m/s 735 mmHg 88%
    03:00 +14°C° 0 mm 2 m/s 735 mmHg 88%
    04:00 +14°C° 0 mm 2 m/s 735 mmHg 88%
    05:00 +13°C° 0 mm 2 m/s 736 mmHg 88%
    06:00 +16°C° 0 mm 2 m/s 736 mmHg 82%
    07:00 +18°C° 0 mm 2 m/s 736 mmHg 75%
    08:00 +20°C° 0 mm 2 m/s 737 mmHg 69%
    09:00 +22°C° 0 mm 1 m/s 737 mmHg 63%
    10:00 +24°C° 0 mm 1 m/s 737 mmHg 58%
    11:00 +26°C° 0 mm 1 m/s 738 mmHg 52%
    12:00 +26°C° 0 mm 1 m/s 737 mmHg 52%
    13:00 +26°C° 0 mm 1 m/s 737 mmHg 51%
    14:00 +26°C° 0 mm 1 m/s 737 mmHg 51%
    15:00 +26°C° 0 mm 1 m/s 737 mmHg 53%
    16:00 +26°C° 0 mm 2 m/s 737 mmHg 55%
    17:00 +25°C° 0 mm 2 m/s 737 mmHg 57%
    18:00 +23°C° 0 mm 2 m/s 737 mmHg 64%
    19:00 +20°C° 0 mm 2 m/s 737 mmHg 71%
    20:00 +18°C° 0 mm 2 m/s 737 mmHg 78%
    21:00 +17°C° 0 mm 2 m/s 737 mmHg 81%
    22:00 +17°C° 0 mm 2 m/s 737 mmHg 84%
    23:00 +16°C° 0 mm 2 m/s 737 mmHg 87%

    Amanhã, 27 Maio, Segunda-feira

    Tempo Temperatura Precipitação Vento Pressão Humidade
    00:00 +16°C° 0 mm 1 m/s 737 mmHg 88%
    01:00 +16°C° 0 mm 1 m/s 737 mmHg 89%
    02:00 +16°C° 0 mm 1 m/s 737 mmHg 90%
    03:00 +15°C° 0 mm 1 m/s 737 mmHg 89%
    04:00 +15°C° 0 mm 1 m/s 737 mmHg 89%
    05:00 +15°C° 0 mm 1 m/s 737 mmHg 89%
    06:00 +18°C° 0 mm 1 m/s 737 mmHg 81%
    07:00 +20°C° 0 mm 1 m/s 737 mmHg 74%
    08:00 +23°C° 0 mm 1 m/s 737 mmHg 66%
    09:00 +24°C° 0 mm 2 m/s 737 mmHg 60%
    10:00 +25°C° 0 mm 2 m/s 737 mmHg 55%
    11:00 +26°C° 0 mm 3 m/s 738 mmHg 49%
    12:00 +26°C° 0 mm 4 m/s 737 mmHg 49%
    13:00 +26°C° 0 mm 4 m/s 737 mmHg 49%
    14:00 +26°C° 0 mm 5 m/s 737 mmHg 50%
    15:00 +25°C° 0 mm 4 m/s 736 mmHg 53%
    16:00 +23°C° 0 mm 4 m/s 736 mmHg 56%
    17:00 +22°C° 0 mm 4 m/s 736 mmHg 59%
    18:00 +20°C° 0 mm 4 m/s 736 mmHg 69%
    19:00 +18°C° 0 mm 3 m/s 736 mmHg 79%
    20:00 +16°C° 0 mm 2 m/s 736 mmHg 88%
    21:00 +15°C° 0 mm 2 m/s 736 mmHg 89%
    22:00 +15°C° 0 mm 2 m/s 736 mmHg 89%
    23:00 +14°C° 0 mm 2 m/s 736 mmHg 89%

    Depois de amanhã, 28 Maio, Terça-feira

    Tempo Temperatura Precipitação Vento Pressão Humidade
    00:00 +14°C° 0 mm 1 m/s 735 mmHg 86%
    01:00 +14°C° 0 mm 1 m/s 735 mmHg 84%
    02:00 +15°C° 0 mm 1 m/s 734 mmHg 81%
    03:00 +14°C° 0 mm 1 m/s 734 mmHg 82%
    04:00 +14°C° 0 mm 1 m/s 734 mmHg 83%
    05:00 +14°C° 0 mm 1 m/s 733 mmHg 84%
    06:00 +18°C° 0 mm 1 m/s 734 mmHg 77%
    07:00 +20°C° 0 mm 1 m/s 734 mmHg 70%
    08:00 +23°C° 0 mm 1 m/s 734 mmHg 64%
    09:00 +25°C° 0 mm 2 m/s 734 mmHg 59%
    10:00 +26°C° 0 mm 2 m/s 734 mmHg 55%
    11:00 +28°C° 0 mm 3 m/s 734 mmHg 51%
    12:00 +29°C° 0 mm 3 m/s 734 mmHg 49%
    13:00 +30°C° 0 mm 3 m/s 733 mmHg 47%
    14:00 +30°C° 0 mm 4 m/s 733 mmHg 45%
    15:00 +30°C° 0 mm 3 m/s 733 mmHg 48%
    16:00 +29°C° 0 mm 3 m/s 732 mmHg 51%
    17:00 +29°C° 0 mm 3 m/s 732 mmHg 54%
    18:00 +26°C° 0 mm 3 m/s 732 mmHg 58%
    19:00 +24°C° 0 mm 2 m/s 732 mmHg 62%
    20:00 +20°C° 0 mm 2 m/s 731 mmHg 66%
    21:00 +20°C° 0 mm 3 m/s 732 mmHg 61%
    22:00 +19°C° 0 mm 3 m/s 732 mmHg 56%
    23:00 +19°C° 0 mm 4 m/s 732 mmHg 52%

    29 Maio, Quarta-feira

    Tempo Temperatura Precipitação Vento Pressão Humidade
    00:00 +18°C° 0 mm 4 m/s 732 mmHg 59%
    01:00 +18°C° 0 mm 4 m/s 732 mmHg 65%
    02:00 +17°C° 0 mm 4 m/s 732 mmHg 72%
    03:00 +17°C° 0 mm 4 m/s 732 mmHg 76%
    04:00 +16°C° 0 mm 3 m/s 732 mmHg 80%
    05:00 +16°C° 0 mm 3 m/s 732 mmHg 84%
    06:00 +18°C° 0 mm 3 m/s 732 mmHg 78%
    07:00 +20°C° 0 mm 3 m/s 732 mmHg 72%
    08:00 +22°C° 0 mm 3 m/s 733 mmHg 65%
    09:00 +25°C° 0 mm 3 m/s 733 mmHg 60%
    10:00 +26°C° 0 mm 3 m/s 733 mmHg 55%
    11:00 +28°C° 0 mm 3 m/s 733 mmHg 49%
    12:00 +28°C° 0 mm 3 m/s 733 mmHg 48%
    13:00 +29°C° 0 mm 3 m/s 733 mmHg 46%
    14:00 +29°C° 0 mm 3 m/s 733 mmHg 45%
    15:00 +29°C° 0 mm 3 m/s 733 mmHg 48%
    16:00 +29°C° 0 mm 3 m/s 733 mmHg 50%
    17:00 +28°C° 0 mm 3 m/s 733 mmHg 53%
    18:00 +26°C° 0 mm 3 m/s 733 mmHg 58%
    19:00 +24°C° 0 mm 3 m/s 733 mmHg 64%
    20:00 +21°C° 0 mm 3 m/s 733 mmHg 69%
    21:00 +20°C° 0 mm 3 m/s 733 mmHg 71%
    22:00 +19°C° 0 mm 3 m/s 733 mmHg 72%
    23:00 +17°C° 0 mm 3 m/s 733 mmHg 74%

    30 Maio, Quinta-feira

    Tempo Temperatura Precipitação Vento Pressão Humidade
    00:00 +17°C° 0 mm 2 m/s 733 mmHg 76%
    01:00 +17°C° 0 mm 2 m/s 733 mmHg 78%
    02:00 +16°C° 0 mm 2 m/s 733 mmHg 80%
    03:00 +16°C° 0 mm 2 m/s 733 mmHg 82%
    04:00 +16°C° 0 mm 2 m/s 733 mmHg 83%
    05:00 +16°C° 0 mm 2 m/s 734 mmHg 85%
    06:00 +18°C° 0 mm 2 m/s 734 mmHg 79%
    07:00 +20°C° 0 mm 2 m/s 734 mmHg 73%
    08:00 +24°C° 0 mm 2 m/s 735 mmHg 67%
    09:00 +25°C° 0 mm 2 m/s 735 mmHg 63%
    10:00 +27°C° 0 mm 2 m/s 735 mmHg 58%
    11:00 +28°C° 0 mm 2 m/s 735 mmHg 53%
    12:00 +28°C° 0.4 mm 2 m/s 735 mmHg 53%
    13:00 +29°C° 0.4 mm 1 m/s 735 mmHg 53%
    14:00 +29°C° 0.4 mm 1 m/s 735 mmHg 53%
    15:00 +29°C° 0.7 mm 1 m/s 734 mmHg 56%
    16:00 +28°C° 0.7 mm 1 m/s 734 mmHg 60%
    17:00 +27°C° 0.7 mm 1 m/s 734 mmHg 64%
    18:00 +26°C° 0.1 mm 1 m/s 734 mmHg 69%
    19:00 +24°C° 0.1 mm 1 m/s 734 mmHg 74%
    20:00 +22°C° 0.1 mm 1 m/s 734 mmHg 80%
    21:00 +21°C° 0.5 mm 1 m/s 734 mmHg 81%
    22:00 +21°C° 0.5 mm 1 m/s 735 mmHg 82%
    23:00 +20°C° 0.5 mm 1 m/s 735 mmHg 83%

    31 Maio, Sexta-feira

    Tempo Temperatura Precipitação Vento Pressão Humidade
    00:00 +20°C° 0.7 mm 1 m/s 735 mmHg 84%
    01:00 +19°C° 0.7 mm 1 m/s 735 mmHg 85%
    02:00 +19°C° 0.7 mm 1 m/s 735 mmHg 86%
    03:00 +18°C° 0.2 mm 2 m/s 735 mmHg 87%
    04:00 +17°C° 0.2 mm 2 m/s 735 mmHg 89%
    05:00 +16°C° 0.2 mm 3 m/s 735 mmHg 91%
    06:00 +17°C° 0.9 mm 3 m/s 735 mmHg 90%
    07:00 +18°C° 0.9 mm 4 m/s 736 mmHg 88%
    08:00 +19°C° 0.9 mm 4 m/s 736 mmHg 86%
    09:00 +20°C° 0.4 mm 4 m/s 736 mmHg 82%
    10:00 +21°C° 0.4 mm 5 m/s 736 mmHg 77%
    11:00 +22°C° 0.4 mm 5 m/s 736 mmHg 72%
    12:00 +21°C° 0.5 mm 5 m/s 736 mmHg 77%
    13:00 +20°C° 0.5 mm 5 m/s 736 mmHg 83%
    14:00 +19°C° 0.5 mm 5 m/s 736 mmHg 88%
    15:00 +17°C° 1.3 mm 5 m/s 736 mmHg 90%
    16:00 +17°C° 1.3 mm 5 m/s 736 mmHg 92%
    17:00 +16°C° 1.3 mm 5 m/s 736 mmHg 94%
    18:00 +16°C° 3.8 mm 5 m/s 736 mmHg 95%
    19:00 +17°C° 3.8 mm 4 m/s 736 mmHg 96%
    20:00 +15°C° 3.8 mm 4 m/s 736 mmHg 96%
    21:00 +15°C° 3.2 mm 4 m/s 736 mmHg 97%
    22:00 +16°C° 3.2 mm 3 m/s 736 mmHg 97%
    23:00 +14°C° 3.2 mm 3 m/s 736 mmHg 97%
    Mostrar mais